DIAMANT DEB, 2685

Orbit data source: Space-Track

DIAMANT DEB, 2685 is space debris in LEO originally from a launch on Wed, 15 Feb 1967 UTC launched from the Hamma Guira Space Track Range (HGSTR). Debris objects in space refer to the collection of defunct objects orbiting the Earth. Examples of debris include non-operational satellites, rocket bodies, and fragments generated from explosions, collisions, or faulty payload assembly.

Loading next visibility...
Identifier
2685, 1967-014F
Orbit
LEO
Country
Flag of FRFR
Related business
Manufacturer
Unknown
Mission
Spacecraft
Bus & Motor
Unknown
Mass
Unknown
Launch date (UTC)
1967-02-15 (59 years ago)
Launch vehicle
Unknown
Launch site
Hamma Guira Space Track Range (HGSTR)
Object type
Payload
Rocket body
Debris
Shape & HBR
Unknown shape, 0.1 m
Radar Cross Section
Small (<0.1 m²)

Expand to show TLE details & history
Last TLE update: 19 hours ago

TLE from 19 hours ago
0 DIAMANT DEB
1 02685U 67014F   26145.55495369  .00004581  00000-0  77470-3 0  9999
2 02685  38.9316 227.3155 0342997 265.3516  90.7992 14.37533131964220
Epoch: 2026-05-25T13:19Z
TLE epoch observation values (Epoch: 2026-05-25T13:19:07.998Z)
Latitude
-0.00004°
Longitude
144.39106°
Altitude
777.819 km
Speed
7.461 km/s
True Right ascension
15h 09m 15s
True Declination
0° 00' 00"
Sunlit
Object was in full shadow at epoch
Visualization orbit readout
Latitude
Unknown
Longitude
Unknown
Altitude
Unknown
Speed
Unknown
Apparent Right ascension
Unknown
Apparent Declination
Unknown
Sunlit
N/A
Visualization observer readout
Local Sidereal Time
17:24:21
Azimuth
Unknown
Elevation
Unknown
Doppler factor
Unknown
Orbital elements
Apogee altitude
1,014.334 km
Perigee altitude
524.032 km
Semi-major axis
7,147.32 km
Eccentricity
0.0343
Inclination
38.9316°
RAAN
227.3155°
Arg. of periapsis
265.3516°
True anomaly
94.72385°
Mean anomaly
90.7992°
Eccentric anomaly
92.76214°
Mean motion
3.59193 °/min
Orbital period
100.22 mins
BSTAR
0.0007747
Loading maneuver chart data...
Computing Atmospheric mass density...
Loading historical data...
Loading historical data...
Loading historical data...
Loading historical data...
Loading historical data...
Loading historical data...
Loading historical data...

Documentation

Showing up to 5 results
|